Change the Weather History Date:

Thursday, April 24, 2014

  Actual Average (KTUL) Record (KTUL)
Temperature  
Mean Temperature 62 °F 63 °F  
Max Temperature 73 °F 74 °F 91 °F (1975)
Min Temperature 50 °F 52 °F 32 °F (2013)
Degree Days  
Heating Degree Days 2 4  
Month to date heating degree days 166  
Since 1 July heating degree days 3515  
Cooling Degree Days 0 2  
Month to date cooling degree days 37  
Year to date cooling degree days 49  
Growing Degree Days 12 (Base 50)    
Moisture  
Dew Point 56 °F    
Average Humidity 68    
Maximum Humidity 94    
Minimum Humidity 34    
Precipitation  
Precipitation 0.26 in 0.15 in 2.88 in (2011)
Month to date precipitation 2.85  
Year to date precipitation 9.65  
Sea Level Pressure  
Sea Level Pressure 29.75 in    
Wind  
Wind Speed 11 mph (SW)    
Max Wind Speed 18 mph    
Max Gust Speed 32 mph    
Visibility 9 miles    
Events Rain , Thunderstorm    
T = Trace of Precipitation, MM = Missing Value Source: NWS Daily Summary

Daily Weather History Graph

Daily Weather History Graph

Search for Another Location

Airport or City:

Trip Planner

Search our weather history database for the weather conditions in past years. The results will help you decide how hot, cold, wet, or windy it might be!

Date:

Astronomy

Apr. 24, 2014 Rise Set
Actual Time 6:39 AM CDT 8:05 PM CDT
Civil Twilight 6:12 AM CDT 8:32 PM CDT
Nautical Twilight 5:40 AM CDT 9:04 PM CDT
Astronomical Twilight 5:06 AM CDT 9:38 PM CDT
Moon 3:41 AM CDT (4/24) 3:30 PM CDT (4/24)
Length of Visible Light 14h 19m
Length of Day
13h 25m
Waning Crescent, 24% of the Moon is Illuminated
Apr 24
Waning Crescent
Apr 29
New
May 6
First Quarter
May 14
Full
May 21
Last Quarter

Hourly Weather History & Observations

Time (CDT) Temp. Dew Point Humidity Pressure Visibility Wind Dir Wind Speed Gust Speed Precip Events Conditions
12:53 AM 72.0 °F 57.9 °F 61% 29.79 in 10.0 mi South 6.9 mph - N/A   Overcast
1:03 AM 71.6 °F 57.2 °F 60% 29.78 in 10.0 mi SSW 6.9 mph - N/A Thunderstorm Overcast
1:44 AM 71.6 °F 57.2 °F 60% 29.76 in 10.0 mi South 12.7 mph - N/A   Overcast
1:53 AM 71.1 °F 57.9 °F 63% 29.74 in 10.0 mi SSE 13.8 mph 20.7 mph 0.00 in Rain Light Rain
2:53 AM 69.1 °F 59.0 °F 70% 29.68 in 10.0 mi SSE 13.8 mph 26.5 mph 0.00 in   Clear
3:53 AM 70.0 °F 57.9 °F 65% 29.63 in 10.0 mi SSE 13.8 mph 24.2 mph N/A   Scattered Clouds
4:53 AM 69.1 °F 60.1 °F 73% 29.66 in 10.0 mi South 10.4 mph - N/A   Clear
5:53 AM 69.1 °F 61.0 °F 75% 29.66 in 10.0 mi South 13.8 mph 25.3 mph N/A   Clear
6:53 AM 70.0 °F 61.0 °F 73% 29.65 in 10.0 mi South 15.0 mph 27.6 mph N/A   Scattered Clouds
7:53 AM 69.1 °F 61.0 °F 75% 29.67 in 10.0 mi SSW 16.1 mph 24.2 mph N/A   Mostly Cloudy
8:31 AM 69.8 °F 60.8 °F 73% 29.68 in 10.0 mi South 18.4 mph 24.2 mph N/A   Mostly Cloudy
8:53 AM 69.1 °F 62.1 °F 78% 29.69 in 10.0 mi South 16.1 mph 26.5 mph N/A   Overcast
9:20 AM 69.8 °F 62.6 °F 78% 29.70 in 10.0 mi South 16.1 mph 27.6 mph N/A   Overcast
9:42 AM 69.8 °F 62.6 °F 78% 29.70 in 10.0 mi SSW 17.3 mph 25.3 mph N/A   Overcast
9:53 AM 69.1 °F 62.1 °F 78% 29.70 in 10.0 mi South 10.4 mph 24.2 mph N/A   Overcast
10:53 AM 72.0 °F 63.0 °F 73% 29.68 in 10.0 mi South 17.3 mph 31.1 mph N/A   Overcast
11:14 AM 71.6 °F 62.6 °F 73% 29.68 in 10.0 mi South 17.3 mph 32.2 mph N/A   Mostly Cloudy
11:53 AM 72.0 °F 63.0 °F 73% 29.69 in 10.0 mi SSW 17.3 mph 28.8 mph N/A   Mostly Cloudy
12:16 PM 69.8 °F 64.4 °F 83% 29.69 in 1.8 mi West 11.5 mph 23.0 mph 0.10 in Rain Heavy Rain
12:20 PM 66.2 °F 64.4 °F 94% 29.69 in 0.8 mi WSW 9.2 mph 20.7 mph 0.26 in Rain Heavy Rain
12:29 PM 64.4 °F 62.6 °F 94% 29.69 in 3.0 mi West 9.2 mph - 0.26 in Rain Light Rain
12:38 PM 64.4 °F 62.6 °F 94% 29.70 in 9.0 mi West 9.2 mph - 0.26 in   Overcast
12:53 PM 64.9 °F 61.0 °F 87% 29.72 in 10.0 mi West 8.1 mph 18.4 mph 0.26 in   Overcast
1:20 PM 64.4 °F 59.0 °F 83% 29.72 in 10.0 mi West 9.2 mph 20.7 mph N/A   Overcast
1:53 PM 66.0 °F 59.0 °F 78% 29.75 in 10.0 mi WNW 8.1 mph - N/A   Overcast
2:10 PM 68.0 °F 57.2 °F 68% 29.73 in 10.0 mi Variable 6.9 mph - N/A   Overcast
2:53 PM 68.0 °F 54.0 °F 61% 29.76 in 10.0 mi WNW 10.4 mph 18.4 mph N/A   Overcast
3:53 PM 71.1 °F 48.0 °F 44% 29.77 in 10.0 mi NW 13.8 mph 32.2 mph N/A   Mostly Cloudy
4:53 PM 72.0 °F 46.0 °F 40% 29.79 in 10.0 mi NNW 15.0 mph 25.3 mph N/A   Scattered Clouds
5:53 PM 70.0 °F 43.0 °F 38% 29.83 in 10.0 mi Variable 6.9 mph 20.7 mph N/A   Clear
6:53 PM 70.0 °F 41.0 °F 35% 29.86 in 10.0 mi NNW 13.8 mph 23.0 mph N/A   Clear
7:53 PM 66.9 °F 37.9 °F 34% 29.90 in 10.0 mi NNW 8.1 mph 17.3 mph N/A   Clear
8:53 PM 64.0 °F 39.9 °F 41% 29.94 in 10.0 mi North 6.9 mph - N/A   Clear
9:53 PM 57.0 °F 42.1 °F 57% 29.97 in 10.0 mi Calm Calm - N/A   Clear
10:53 PM 53.1 °F 43.0 °F 69% 29.96 in 10.0 mi Calm Calm - N/A   Clear
11:53 PM 50.0 °F 44.1 °F 80% 29.97 in 10.0 mi Calm Calm - N/A   Clear